SCP
4 3 4 3 4 6 13 12 8 5 3 2 1 1 0 0 0 0 -0 -0 0 0
6 6 5 4 5 3 10 15 10 8 7 4 3 1 1 1 1 0 0 0 0 0
4 5 5 5 5 7 4 14 10 10 9 7 4 2 2 2 1 0 0 0 0 0
1 1 2 3 5 7 8 11 10 9 8 8 6 4 3 3 1 0 0 0 0 0
-0 0 2 2 3 5 6 7 9 9 7 6 5 5 4 2 1 0 0 0 0 0
3 2 0 2 2 3 4 3 5 6 7 5 4 4 4 2 1 0 0 0 0 0
1 2 2 1 2 3 2 2 3 5 5 4 3 4 4 2 1 0 0 0 0 0
0 1 3 1 1 1 1 2 2 3 3 3 2 5 4 2 1 0 0 0 0 0
0 0 0 2 1 2 1 1 2 2 2 2 3 2 1 2 1 1 0 0 0 0
0 0 0 0 1 1 2 2 1 2 2 2 2 1 0 0 2 1 0 0 0 0
0 0 0 0 1 0 2 1 2 1 2 2 2 0 0 0 2 1 0 0 0 0
0 0 0 0 1 1 1 1 1 2 2 3 3 0 0 0 1 0 0 0 0 0
0 0 0 0 0 1 1 1 1 2 2 2 2 0 0 0 0 0 0 0 0 0
0 0 0 0 0 0 0 0 1 2 1 1 2 0 0 0 0 0 0 0 0 0
Wind_Speed_500mb
97 107 113 110 104 93 91 105 101 80 88 79 71 56 69 77 61 49 62 72 71 48
85 90 93 96 93 112 94 102 114 107 99 105 96 71 68 80 74 63 71 71 73 69
68 76 80 86 90 94 105 98 106 113 110 111 109 99 87 79 84 70 77 71 74 72
42 56 70 78 82 87 89 95 99 89 108 117 120 115 103 91 85 79 80 75 76 72
36 39 52 64 69 75 82 93 98 100 101 115 123 123 117 104 93 90 81 83 82 79
36 37 41 50 58 66 75 82 94 94 105 106 108 112 127 116 100 95 85 85 85 76
42 37 46 48 53 58 69 76 84 90 100 99 97 103 118 121 106 95 86 79 81 79
49 46 40 44 49 58 64 68 76 82 90 90 96 106 108 109 103 92 86 78 85 78
48 50 47 35 46 50 63 71 70 79 87 88 94 108 114 101 101 95 95 88 89 76
51 49 53 51 44 50 53 64 74 78 83 93 97 106 107 106 102 102 98 98 96 89
55 52 53 54 54 55 53 58 58 78 85 87 96 104 109 110 101 103 100 103 103 109
57 55 55 55 50 59 59 58 66 60 80 87 95 107 108 107 112 101 101 104 107 103
59 57 56 55 56 54 57 61 61 71 67 78 85 103 110 113 124 109 103 108 109 95
59 61 66 61 54 56 63 63 61 70 76 77 86 95 113 110 126 121 118 123 106 98
Wind_Direction_500mb
254 250 238 240 231 227 224 222 239 223 221 228 237 249 235 234 227 240 220 225 223 221
255 245 242 240 239 233 234 229 231 237 226 228 238 240 236 232 229 238 228 223 228 220
254 252 249 249 242 239 235 238 231 229 232 233 237 236 233 232 232 231 230 226 226 222
266 258 258 252 251 243 240 236 235 228 229 234 235 236 229 231 229 231 227 223 222 224
289 270 263 257 254 249 242 236 239 232 231 234 238 238 233 226 228 232 227 225 219 224
323 302 275 270 265 252 246 240 234 233 227 231 230 229 234 231 228 233 229 224 218 218
324 322 302 282 269 261 255 244 237 235 231 235 228 220 230 232 227 228 227 223 215 210
320 317 324 296 286 263 253 248 241 240 237 239 226 220 221 225 225 220 219 213 206 206
313 312 302 301 288 289 261 253 249 243 238 235 227 223 222 221 224 211 216 209 205 200
307 305 305 306 287 281 279 264 253 246 239 238 236 224 222 222 222 217 217 211 207 199
303 301 303 300 300 278 276 268 273 251 245 242 240 230 224 223 216 213 217 212 212 209
300 299 303 304 293 290 280 272 263 271 251 248 244 233 228 220 212 207 213 207 213 212
297 296 296 299 301 294 288 275 270 262 266 249 248 235 226 228 212 203 201 203 212 216
295 294 295 294 302 294 289 286 270 269 266 258 248 246 233 224 207 205 201 206 210 213
Wind_Speed_850mb
97 107 113 110 104 93 91 105 101 80 88 79 71 56 69 77 61 49 62 72 71 48
85 90 93 96 93 112 94 102 114 107 99 105 96 71 68 80 74 63 71 71 73 69
68 76 80 86 90 94 105 98 106 113 110 111 109 99 87 79 84 70 77 71 74 72
42 56 70 78 82 87 89 95 99 89 108 117 120 115 103 91 85 79 80 75 76 72
36 39 52 64 69 75 82 93 98 100 101 115 123 123 117 104 93 90 81 83 82 79
36 37 41 50 58 66 75 82 94 94 105 106 108 112 127 116 100 95 85 85 85 76
42 37 46 48 53 58 69 76 84 90 100 99 97 103 118 121 106 95 86 79 81 79
49 46 40 44 49 58 64 68 76 82 90 90 96 106 108 109 103 92 86 78 85 78
48 50 47 35 46 50 63 71 70 79 87 88 94 108 114 101 101 95 95 88 89 76
51 49 53 51 44 50 53 64 74 78 83 93 97 106 107 106 102 102 98 98 96 89
55 52 53 54 54 55 53 58 58 78 85 87 96 104 109 110 101 103 100 103 103 109
57 55 55 55 50 59 59 58 66 60 80 87 95 107 108 107 112 101 101 104 107 103
59 57 56 55 56 54 57 61 61 71 67 78 85 103 110 113 124 109 103 108 109 95
59 61 66 61 54 56 63 63 61 70 76 77 86 95 113 110 126 121 118 123 106 98
Wind_Direction_850mb
254 250 238 240 231 227 224 222 239 223 221 228 237 249 235 234 227 240 220 225 223 221
255 245 242 240 239 233 234 229 231 237 226 228 238 240 236 232 229 238 228 223 228 220
254 252 249 249 242 239 235 238 231 229 232 233 237 236 233 232 232 231 230 226 226 222
266 258 258 252 251 243 240 236 235 228 229 234 235 236 229 231 229 231 227 223 222 224
289 270 263 257 254 249 242 236 239 232 231 234 238 238 233 226 228 232 227 225 219 224
323 302 275 270 265 252 246 240 234 233 227 231 230 229 234 231 228 233 229 224 218 218
324 322 302 282 269 261 255 244 237 235 231 235 228 220 230 232 227 228 227 223 215 210
320 317 324 296 286 263 253 248 241 240 237 239 226 220 221 225 225 220 219 213 206 206
313 312 302 301 288 289 261 253 249 243 238 235 227 223 222 221 224 211 216 209 205 200
307 305 305 306 287 281 279 264 253 246 239 238 236 224 222 222 222 217 217 211 207 199
303 301 303 300 300 278 276 268 273 251 245 242 240 230 224 223 216 213 217 212 212 209
300 299 303 304 293 290 280 272 263 271 251 248 244 233 228 220 212 207 213 207 213 212
297 296 296 299 301 294 288 275 270 262 266 249 248 235 226 228 212 203 201 203 212 216
295 294 295 294 302 294 289 286 270 269 266 258 248 246 233 224 207 205 201 206 210 213